| time (UTC) | temp F | wind direction | speed MPH | gust MPH | rain 1hr in | rain 24hr in | rain mn in | humidity % | barometer mb |
| 20260831213903 | 91 | 71 | 3.0 | 4.0 | 0.00 | 0.01 | 0.01 | 55 | 1019.5 |
| 20260831213400 | 90 | 121 | 1.0 | 2.0 | 0.00 | 0.01 | 0.01 | 56 | 1019.5 |
| 20260831212855 | 90 | 121 | 2.0 | 3.0 | 0.00 | 0.01 | 0.01 | 57 | 1019.5 |
| 20260831212351 | 90 | 121 | 0.0 | 2.0 | 0.00 | 0.01 | 0.01 | 58 | 1019.5 |
| 20260831211850 | 90 | 121 | 2.0 | 3.0 | 0.00 | 0.01 | 0.01 | 58 | 1019.5 |
| 20260831211350 | 90 | 139 | 2.0 | 3.0 | 0.00 | 0.01 | 0.01 | 58 | 1019.5 |
| 20260831210850 | 90 | 139 | 3.0 | 4.0 | 0.00 | 0.01 | 0.01 | 58 | 1019.2 |
| 20260831210346 | 90 | 139 | 2.0 | 3.0 | 0.00 | 0.01 | 0.01 | 58 | 1019.2 |
| 20260831205841 | 90 | 91 | 4.0 | 5.0 | 0.00 | 0.01 | 0.01 | 57 | 1019.2 |
| 20260831205337 | 91 | 127 | 3.0 | 4.0 | 0.00 | 0.01 | 0.01 | 56 | 1019.2 |
| 20260831204832 | 91 | 127 | 4.0 | 5.0 | 0.00 | 0.01 | 0.01 | 53 | 1019.2 |
| 20260831204331 | 92 | 93 | 4.0 | 5.0 | 0.00 | 0.01 | 0.01 | 54 | 1019.2 |
| 20260831203830 | 93 | 15 | 0.0 | 0.0 | 0.00 | 0.01 | 0.01 | 53 | 1019.2 |
| 20260831203325 | 91 | 127 | 3.0 | 5.0 | 0.00 | 0.01 | 0.01 | 55 | 1019.2 |
| 20260831202823 | 90 | 85 | 3.0 | 6.0 | 0.00 | 0.01 | 0.01 | 57 | 1019.5 |
| 20260831202318 | 91 | 119 | 4.0 | 6.0 | 0.00 | 0.01 | 0.01 | 55 | 1019.5 |
| 20260831201812 | 91 | 133 | 1.0 | 4.0 | 0.00 | 0.01 | 0.01 | 54 | 1019.5 |
| 20260831201311 | 91 | 133 | 2.0 | 3.0 | 0.00 | 0.01 | 0.01 | 53 | 1019.5 |
| 20260831200807 | 91 | 133 | 2.0 | 3.0 | 0.00 | 0.01 | 0.01 | 54 | 1019.5 |
| 20260831200301 | 91 | 133 | 0.0 | 2.0 | 0.00 | 0.01 | 0.01 | 54 | 1019.5 |
| 20260831195757 | 91 | 133 | 1.0 | 3.0 | 0.00 | 0.01 | 0.01 | 53 | 1019.5 |
| 20260831195253 | 91 | 133 | 2.0 | 3.0 | 0.00 | 0.01 | 0.01 | 53 | 1019.5 |
| 20260831194747 | 91 | 133 | 1.0 | 2.0 | 0.00 | 0.01 | 0.01 | 52 | 1019.5 |
| 20260831194244 | 90 | 133 | 1.0 | 3.0 | 0.00 | 0.01 | 0.01 | 53 | 1019.5 |
| 20260831193737 | 91 | 133 | 4.0 | 5.0 | 0.00 | 0.01 | 0.01 | 55 | 1019.5 |
| 20260831193233 | 91 | 167 | 3.0 | 4.0 | 0.00 | 0.01 | 0.01 | 53 | 1019.5 |
| 20260831192733 | 92 | 4 | 0.0 | 0.0 | 0.00 | 0.01 | 0.01 | 52 | 1019.5 |
| 20260831192228 | 93 | 4 | 0.0 | 0.0 | 0.00 | 0.01 | 0.01 | 50 | 1019.5 |
| 20260831191724 | 93 | 4 | 1.0 | 4.0 | 0.00 | 0.01 | 0.01 | 50 | 1020.0 |
| 20260831191220 | 94 | 89 | 2.0 | 4.0 | 0.00 | 0.01 | 0.01 | 49 | 1020.0 |
| 20260831190715 | 93 | 89 | 0.0 | 4.0 | 0.00 | 0.01 | 0.01 | 50 | 1020.0 |
| 20260831190214 | 92 | 90 | 0.0 | 2.0 | 0.00 | 0.01 | 0.01 | 52 | 1020.0 |
| 20260831185709 | 91 | 126 | 3.0 | 4.0 | 0.00 | 0.01 | 0.01 | 56 | 1020.0 |
| 20260831185205 | 91 | 168 | 4.0 | 6.0 | 0.00 | 0.01 | 0.01 | 57 | 1020.0 |
| 20260831184704 | 92 | 122 | 5.0 | 7.0 | 0.00 | 0.01 | 0.01 | 55 | 1020.0 |
| 20260831184200 | 92 | 121 | 2.0 | 6.0 | 0.00 | 0.01 | 0.01 | 52 | 1020.0 |
| 20260831183659 | 92 | 114 | 2.0 | 5.0 | 0.00 | 0.01 | 0.01 | 54 | 1019.5 |
| 20260831183154 | 91 | 128 | 6.0 | 8.0 | 0.00 | 0.01 | 0.01 | 56 | 1020.0 |
| 20260831182653 | 92 | 127 | 4.0 | 7.0 | 0.00 | 0.01 | 0.01 | 55 | 1020.0 |
| 20260831182149 | 92 | 105 | 7.0 | 9.0 | 0.00 | 0.01 | 0.01 | 53 | 1020.0 |
| 20260831181644 | 92 | 115 | 5.0 | 7.0 | 0.00 | 0.01 | 0.01 | 53 | 1020.0 |
| 20260831181143 | 92 | 132 | 6.0 | 8.0 | 0.00 | 0.01 | 0.01 | 55 | 1020.0 |
| 20260831180639 | 93 | 116 | 5.0 | 7.0 | 0.00 | 0.01 | 0.01 | 55 | 1020.0 |
| 20260831180133 | 91 | 120 | 5.0 | 8.0 | 0.00 | 0.01 | 0.01 | 57 | 1020.0 |
| 20260831175628 | 91 | 132 | 6.0 | 9.0 | 0.00 | 0.01 | 0.01 | 58 | 1020.0 |
| 20260831175125 | 91 | 118 | 5.0 | 6.0 | 0.00 | 0.01 | 0.01 | 54 | 1020.0 |
| 20260831174625 | 91 | 130 | 3.0 | 5.0 | 0.00 | 0.01 | 0.01 | 57 | 1020.0 |
| 20260831174120 | 91 | 113 | 5.0 | 7.0 | 0.00 | 0.01 | 0.01 | 58 | 1020.0 |
| 20260831173618 | 90 | 121 | 5.0 | 6.0 | 0.00 | 0.01 | 0.01 | 60 | 1020.0 |
| 20260831173115 | 89 | 143 | 4.0 | 5.0 | 0.00 | 0.01 | 0.01 | 62 | 1020.0 |
| 20260831172614 | 89 | 123 | 6.0 | 8.0 | 0.00 | 0.01 | 0.01 | 64 | 1020.3 |
| 20260831172114 | 88 | 151 | 5.0 | 7.0 | 0.00 | 0.01 | 0.01 | 66 | 1020.3 |
| 20260831171609 | 88 | 135 | 4.0 | 4.0 | 0.00 | 0.01 | 0.01 | 66 | 1020.3 |
| 20260831171107 | 88 | 135 | 6.0 | 7.0 | 0.00 | 0.01 | 0.01 | 64 | 1020.3 |
| 20260831170604 | 88 | 107 | 4.0 | 5.0 | 0.00 | 0.01 | 0.01 | 66 | 1020.6 |
| 20260831170101 | 86 | 121 | 4.0 | 5.0 | 0.00 | 0.01 | 0.01 | 67 | 1020.6 |
| 20260831165600 | 84 | 95 | 3.0 | 5.0 | 0.00 | 0.01 | 0.01 | 71 | 1021.0 |
| 20260831165057 | 85 | 108 | 1.0 | 5.0 | 0.00 | 0.01 | 0.01 | 72 | 1021.0 |
| 20260831164553 | 84 | 95 | 0.0 | 1.0 | 0.00 | 0.01 | 0.01 | 71 | 1021.0 |
| 20260831164048 | 84 | 95 | 0.0 | 0.0 | 0.00 | 0.01 | 0.01 | 70 | 1021.3 |
| 20260831163543 | 84 | 95 | 3.0 | 4.0 | 0.00 | 0.01 | 0.01 | 68 | 1021.3 |
| 20260831163039 | 86 | 99 | 4.0 | 5.0 | 0.00 | 0.01 | 0.01 | 65 | 1021.3 |
| 20260831162537 | 89 | 97 | 2.0 | 4.0 | 0.00 | 0.01 | 0.01 | 58 | 1021.0 |
| 20260831162036 | 89 | 97 | 0.0 | 0.0 | 0.00 | 0.01 | 0.01 | 56 | 1021.0 |
| 20260831161532 | 90 | 97 | 0.0 | 2.0 | 0.00 | 0.01 | 0.01 | 55 | 1021.0 |
| 20260831161028 | 91 | 97 | 0.0 | 0.0 | 0.00 | 0.01 | 0.01 | 55 | 1021.0 |
| 20260831160527 | 93 | 108 | 6.0 | 9.0 | 0.00 | 0.01 | 0.01 | 52 | 1020.6 |
| 20260831160023 | 93 | 126 | 1.0 | 3.0 | 0.00 | 0.01 | 0.01 | 51 | 1020.6 |
| 20260831155517 | 93 | 106 | 4.0 | 9.0 | 0.00 | 0.01 | 0.01 | 52 | 1020.3 |
| 20260831155012 | 91 | 203 | 0.0 | 1.0 | 0.00 | 0.01 | 0.01 | 54 | 1020.6 |
| 20260831154509 | 91 | 196 | 4.0 | 6.0 | 0.00 | 0.01 | 0.01 | 54 | 1020.6 |
| 20260831154009 | 92 | 110 | 4.0 | 6.0 | 0.00 | 0.01 | 0.01 | 53 | 1020.6 |
| 20260831153508 | 91 | 71 | 0.0 | 2.0 | 0.00 | 0.01 | 0.01 | 53 | 1020.6 |
| 20260831153006 | 91 | 208 | 0.0 | 4.0 | 0.00 | 0.01 | 0.01 | 55 | 1020.6 |
| 20260831152500 | 90 | 219 | 2.0 | 4.0 | 0.00 | 0.01 | 0.01 | 55 | 1020.6 |
| 20260831151955 | 90 | 219 | 3.0 | 4.0 | 0.00 | 0.01 | 0.01 | 58 | 1021.0 |
| 20260831151455 | 90 | 198 | 3.0 | 5.0 | 0.00 | 0.01 | 0.01 | 55 | 1021.0 |
| 20260831150950 | 90 | 198 | 2.0 | 4.0 | 0.00 | 0.01 | 0.01 | 58 | 1020.6 |
| 20260831150445 | 90 | 198 | 3.0 | 4.0 | 0.00 | 0.01 | 0.01 | 58 | 1021.0 |
| 20260831145945 | 90 | 236 | 1.0 | 2.0 | 0.00 | 0.01 | 0.01 | 60 | 1020.6 |
| 20260831145441 | 89 | 236 | 4.0 | 4.0 | 0.00 | 0.01 | 0.01 | 60 | 1020.6 |
| 20260831144936 | 88 | 120 | 1.0 | 3.0 | 0.00 | 0.01 | 0.01 | 60 | 1020.6 |
| 20260831144432 | 88 | 120 | 0.0 | 2.0 | 0.00 | 0.01 | 0.01 | 59 | 1020.6 |
| 20260831143927 | 87 | 120 | 1.0 | 2.0 | 0.00 | 0.01 | 0.01 | 62 | 1021.0 |
| 20260831143422 | 87 | 120 | 2.0 | 4.0 | 0.00 | 0.01 | 0.01 | 65 | 1020.6 |
| 20260831142918 | 86 | 120 | 0.0 | 2.0 | 0.00 | 0.01 | 0.01 | 67 | 1021.0 |
| 20260831142414 | 85 | 120 | 3.0 | 4.0 | 0.00 | 0.01 | 0.01 | 68 | 1021.0 |
| 20260831141908 | 85 | 213 | 0.0 | 0.0 | 0.00 | 0.01 | 0.01 | 69 | 1021.0 |
| 20260831141402 | 85 | 177 | 0.0 | 2.0 | 0.00 | 0.01 | 0.01 | 70 | 1021.0 |
| 20260831140857 | 84 | 126 | 1.0 | 4.0 | 0.00 | 0.01 | 0.01 | 70 | 1021.0 |
| 20260831140351 | 84 | 122 | 4.0 | 6.0 | 0.00 | 0.01 | 0.01 | 71 | 1021.0 |
| 20260831135850 | 83 | 122 | 2.0 | 4.0 | 0.00 | 0.01 | 0.01 | 72 | 1021.0 |
| 20260831135345 | 83 | 97 | 1.0 | 3.0 | 0.00 | 0.01 | 0.01 | 71 | 1021.0 |
| 20260831134840 | 83 | 351 | 0.0 | 0.0 | 0.00 | 0.01 | 0.01 | 72 | 1021.0 |
| 20260831134337 | 82 | 351 | 0.0 | 0.0 | 0.00 | 0.01 | 0.01 | 74 | 1021.3 |
| 20260831133836 | 81 | 351 | 0.0 | 0.0 | 0.00 | 0.01 | 0.01 | 75 | 1021.3 |
| 20260831133335 | 80 | 351 | 0.0 | 0.0 | 0.00 | 0.01 | 0.01 | 76 | 1021.3 |
| 20260831132831 | 80 | 351 | 0.0 | 0.0 | 0.00 | 0.01 | 0.01 | 77 | 1021.3 |
| 20260831132326 | 79 | 351 | 0.0 | 0.0 | 0.00 | 0.01 | 0.01 | 80 | 1021.7 |
| 20260831131826 | 78 | 351 | 0.0 | 0.0 | 0.00 | 0.01 | 0.01 | 82 | 1021.3 |
| 20260831131322 | 78 | 351 | 0.0 | 0.0 | 0.00 | 0.01 | 0.01 | 84 | 1021.3 |
| 20260831130817 | 77 | 351 | 0.0 | 0.0 | 0.00 | 0.01 | 0.01 | 86 | 1021.3 |
| 20260831130312 | 77 | 351 | 0.0 | 0.0 | 0.00 | 0.01 | 0.01 | 86 | 1021.7 |
| 20260831125812 | 75 | 351 | 0.0 | 0.0 | 0.00 | 0.01 | 0.01 | 89 | 1021.7 |
| 20260831125307 | 74 | 351 | 0.0 | 0.0 | 0.00 | 0.01 | 0.01 | 92 | 1021.7 |
| 20260831124807 | 74 | 14 | 0.0 | 0.0 | 0.00 | 0.00 | 0.00 | 92 | 1021.7 |
| 20260831124304 | 74 | 14 | 0.0 | 0.0 | 0.00 | 0.00 | 0.00 | 92 | 1021.7 |
| 20260831123803 | 73 | 14 | 0.0 | 0.0 | 0.00 | 0.00 | 0.00 | 93 | 1021.7 |
| 20260831123302 | 73 | 14 | 0.0 | 0.0 | 0.00 | 0.00 | 0.00 | 94 | 1021.7 |
| 20260831122757 | 73 | 14 | 0.0 | 0.0 | 0.00 | 0.00 | 0.00 | 94 | 1021.3 |
| 20260831122253 | 73 | 14 | 0.0 | 0.0 | 0.00 | 0.00 | 0.00 | 95 | 1021.7 |
| 20260831121752 | 73 | 14 | 0.0 | 0.0 | 0.00 | 0.00 | 0.00 | 94 | 1021.7 |
| 20260831121249 | 73 | 14 | 0.0 | 0.0 | 0.00 | 0.00 | 0.00 | 95 | 1021.3 |
| 20260831120744 | 72 | 14 | 0.0 | 0.0 | 0.00 | 0.00 | 0.00 | 96 | 1021.3 |
| 20260831120238 | 72 | 14 | 0.0 | 0.0 | 0.00 | 0.00 | 0.00 | 97 | 1021.3 |
| 20260831115734 | 71 | 14 | 0.0 | 0.0 | 0.00 | 0.00 | 0.00 | 97 | 1021.7 |
| 20260831115230 | 71 | 14 | 0.0 | 0.0 | 0.00 | 0.00 | 0.00 | 97 | 1021.3 |
| 20260831114729 | 70 | 14 | 0.0 | 0.0 | 0.00 | 0.00 | 0.00 | 97 | 1021.3 |
| 20260831114229 | 69 | 14 | 0.0 | 0.0 | 0.00 | 0.00 | 0.00 | 98 | 1021.7 |
| 20260831113724 | 69 | 14 | 0.0 | 0.0 | 0.00 | 0.00 | 0.00 | 98 | 1021.7 |
| 20260831113219 | 69 | 14 | 0.0 | 0.0 | 0.00 | 0.00 | 0.00 | 98 | 1021.3 |
| 20260831112718 | 68 | 14 | 0.0 | 0.0 | 0.00 | 0.00 | 0.00 | 98 | 1021.3 |
| 20260831112213 | 68 | 14 | 0.0 | 0.0 | 0.00 | 0.00 | 0.00 | 98 | 1021.3 |
| 20260831111709 | 68 | 14 | 0.0 | 0.0 | 0.00 | 0.00 | 0.00 | 99 | 1021.3 |
| 20260831111205 | 68 | 14 | 0.0 | 0.0 | 0.00 | 0.00 | 0.00 | 99 | 1021.3 |
| 20260831110700 | 68 | 14 | 0.0 | 0.0 | 0.00 | 0.00 | 0.00 | 99 | 1021.3 |
| 20260831110155 | 67 | 14 | 0.0 | 0.0 | 0.00 | 0.00 | 0.00 | 98 | 1021.3 |
| 20260831105654 | 67 | 14 | 0.0 | 0.0 | 0.00 | 0.00 | 0.00 | 98 | 1021.0 |
| 20260831105149 | 67 | 14 | 0.0 | 0.0 | 0.00 | 0.00 | 0.00 | 99 | 1021.0 |
| 20260831104644 | 67 | 14 | 0.0 | 0.0 | 0.00 | 0.00 | 0.00 | 99 | 1021.0 |
| 20260831104141 | 67 | 14 | 0.0 | 0.0 | 0.00 | 0.00 | 0.00 | 99 | 1021.0 |
| 20260831103636 | 67 | 14 | 0.0 | 0.0 | 0.00 | 0.00 | 0.00 | 99 | 1021.0 |
| 20260831103132 | 67 | 14 | 0.0 | 0.0 | 0.00 | 0.00 | 0.00 | 99 | 1021.0 |
| 20260831102626 | 67 | 14 | 0.0 | 0.0 | 0.00 | 0.00 | 0.00 | 99 | 1021.0 |
| 20260831102121 | 67 | 14 | 0.0 | 0.0 | 0.00 | 0.00 | 0.00 | 99 | 1021.0 |
| 20260831101621 | 67 | 14 | 0.0 | 0.0 | 0.00 | 0.00 | 0.00 | 99 | 1021.0 |
| 20260831101117 | 67 | 14 | 0.0 | 0.0 | 0.00 | 0.00 | 0.00 | 99 | 1021.0 |
| 20260831100613 | 67 | 14 | 0.0 | 0.0 | 0.00 | 0.00 | 0.00 | 99 | 1021.0 |
| 20260831100109 | 67 | 14 | 0.0 | 0.0 | 0.00 | 0.00 | 0.00 | 99 | 1021.0 |
| 20260831095607 | 67 | 14 | 0.0 | 0.0 | 0.00 | 0.00 | 0.00 | 99 | 1021.0 |
| 20260831095102 | 67 | 14 | 0.0 | 0.0 | 0.00 | 0.00 | 0.00 | 99 | 1021.0 |
| 20260831094558 | 67 | 14 | 0.0 | 0.0 | 0.00 | 0.00 | 0.00 | 99 | 1021.0 |
| 20260831094054 | 67 | 14 | 0.0 | 0.0 | 0.00 | 0.00 | 0.00 | 99 | 1021.0 |
| 20260831093548 | 67 | 14 | 0.0 | 0.0 | 0.00 | 0.00 | 0.00 | 98 | 1021.0 |
| 20260831093039 | 67 | 14 | 0.0 | 0.0 | 0.00 | 0.00 | 0.00 | 98 | 1021.0 |
| 20260831092534 | 67 | 14 | 0.0 | 0.0 | 0.00 | 0.00 | 0.00 | 98 | 1021.0 |
| 20260831092031 | 66 | 14 | 0.0 | 0.0 | 0.00 | 0.00 | 0.00 | 98 | 1021.0 |
| 20260831091530 | 67 | 14 | 0.0 | 0.0 | 0.00 | 0.00 | 0.00 | 98 | 1021.0 |
| 20260831091026 | 67 | 14 | 0.0 | 0.0 | 0.00 | 0.00 | 0.00 | 97 | 1021.0 |
| 20260831090521 | 67 | 14 | 0.0 | 0.0 | 0.00 | 0.00 | 0.00 | 98 | 1021.0 |
| 20260831090017 | 67 | 14 | 0.0 | 0.0 | 0.00 | 0.00 | 0.00 | 98 | 1021.0 |
| 20260831085512 | 67 | 14 | 0.0 | 0.0 | 0.00 | 0.00 | 0.00 | 98 | 1021.0 |
| 20260831085007 | 67 | 14 | 0.0 | 0.0 | 0.00 | 0.00 | 0.00 | 98 | 1021.0 |
| 20260831084503 | 67 | 14 | 0.0 | 0.0 | 0.00 | 0.00 | 0.00 | 98 | 1021.0 |
| 20260831083959 | 67 | 14 | 0.0 | 0.0 | 0.00 | 0.00 | 0.00 | 98 | 1021.0 |
| 20260831083454 | 67 | 14 | 0.0 | 0.0 | 0.00 | 0.00 | 0.00 | 97 | 1021.0 |
| 20260831082953 | 67 | 14 | 0.0 | 0.0 | 0.00 | 0.00 | 0.00 | 98 | 1021.0 |
| 20260831082448 | 67 | 14 | 0.0 | 0.0 | 0.00 | 0.00 | 0.00 | 97 | 1021.0 |
| 20260831081942 | 67 | 14 | 0.0 | 0.0 | 0.00 | 0.00 | 0.00 | 98 | 1021.0 |
| 20260831081439 | 67 | 14 | 0.0 | 0.0 | 0.00 | 0.00 | 0.00 | 98 | 1021.0 |
| 20260831080934 | 67 | 14 | 0.0 | 0.0 | 0.00 | 0.00 | 0.00 | 98 | 1021.0 |
| 20260831080429 | 67 | 14 | 0.0 | 0.0 | 0.00 | 0.00 | 0.00 | 98 | 1021.0 |
| 20260831075924 | 67 | 14 | 0.0 | 0.0 | 0.00 | 0.00 | 0.00 | 98 | 1021.0 |
| 20260831075420 | 67 | 14 | 0.0 | 0.0 | 0.00 | 0.00 | 0.00 | 97 | 1021.0 |
| 20260831074915 | 67 | 14 | 0.0 | 0.0 | 0.00 | 0.00 | 0.00 | 97 | 1021.0 |
| 20260831074409 | 67 | 14 | 0.0 | 0.0 | 0.00 | 0.00 | 0.00 | 97 | 1021.0 |
| 20260831073903 | 68 | 14 | 0.0 | 0.0 | 0.00 | 0.00 | 0.00 | 97 | 1021.0 |
| 20260831073403 | 67 | 14 | 0.0 | 0.0 | 0.00 | 0.00 | 0.00 | 97 | 1021.0 |
| 20260831072858 | 68 | 14 | 0.0 | 0.0 | 0.00 | 0.00 | 0.00 | 96 | 1021.0 |
| 20260831072354 | 68 | 14 | 0.0 | 0.0 | 0.00 | 0.00 | 0.00 | 96 | 1020.6 |
| 20260831071850 | 68 | 14 | 0.0 | 0.0 | 0.00 | 0.00 | 0.00 | 96 | 1021.0 |
| 20260831071349 | 68 | 14 | 0.0 | 0.0 | 0.00 | 0.00 | 0.00 | 96 | 1021.0 |
| 20260831070843 | 68 | 14 | 0.0 | 0.0 | 0.00 | 0.00 | 0.00 | 96 | 1021.0 |
| 20260831070342 | 68 | 14 | 0.0 | 0.0 | 0.00 | 0.00 | 0.00 | 96 | 1020.6 |
| 20260831065842 | 68 | 14 | 0.0 | 0.0 | 0.00 | 0.00 | 0.00 | 96 | 1021.0 |
| 20260831065339 | 68 | 14 | 0.0 | 0.0 | 0.00 | 0.00 | 0.00 | 96 | 1020.6 |
| 20260831064835 | 68 | 14 | 0.0 | 0.0 | 0.00 | 0.00 | 0.00 | 96 | 1021.0 |
| 20260831064330 | 68 | 14 | 0.0 | 0.0 | 0.00 | 0.00 | 0.00 | 96 | 1021.0 |
| 20260831063826 | 68 | 14 | 0.0 | 0.0 | 0.00 | 0.00 | 0.00 | 96 | 1021.0 |
| 20260831063321 | 68 | 14 | 0.0 | 0.0 | 0.00 | 0.00 | 0.00 | 96 | 1021.0 |
| 20260831062820 | 68 | 14 | 0.0 | 0.0 | 0.00 | 0.00 | 0.00 | 96 | 1021.0 |
| 20260831062315 | 68 | 14 | 0.0 | 0.0 | 0.00 | 0.00 | 0.00 | 96 | 1021.0 |
| 20260831061815 | 68 | 14 | 0.0 | 0.0 | 0.00 | 0.00 | 0.00 | 96 | 1021.0 |
| 20260831061314 | 68 | 14 | 0.0 | 0.0 | 0.00 | 0.00 | 0.00 | 96 | 1021.0 |
| 20260831060810 | 68 | 14 | 0.0 | 0.0 | 0.00 | 0.00 | 0.00 | 96 | 1021.0 |
| 20260831060305 | 68 | 14 | 0.0 | 0.0 | 0.00 | 0.00 | 0.00 | 96 | 1021.0 |
| 20260831055804 | 68 | 14 | 0.0 | 0.0 | 0.00 | 0.00 | 0.00 | 96 | 1021.0 |
| 20260831055300 | 68 | 14 | 0.0 | 0.0 | 0.00 | 0.00 | 0.00 | 95 | 1021.0 |
| 20260831054800 | 68 | 14 | 0.0 | 0.0 | 0.00 | 0.00 | 0.00 | 95 | 1021.0 |
| 20260831054255 | 68 | 14 | 0.0 | 0.0 | 0.00 | 0.00 | 0.00 | 94 | 1021.3 |
| 20260831053754 | 69 | 14 | 0.0 | 0.0 | 0.00 | 0.00 | 0.00 | 94 | 1021.3 |
| 20260831053253 | 69 | 14 | 0.0 | 0.0 | 0.00 | 0.00 | 0.00 | 94 | 1021.3 |
| 20260831052748 | 69 | 14 | 0.0 | 0.0 | 0.00 | 0.00 | 0.00 | 94 | 1021.3 |
| 20260831052247 | 69 | 14 | 0.0 | 0.0 | 0.00 | 0.00 | 0.00 | 94 | 1021.3 |
| 20260831051745 | 69 | 14 | 0.0 | 0.0 | 0.00 | 0.00 | 0.00 | 93 | 1021.3 |
| 20260831051244 | 69 | 14 | 0.0 | 0.0 | 0.00 | 0.00 | 0.00 | 94 | 1021.3 |
| 20260831050739 | 69 | 14 | 0.0 | 0.0 | 0.00 | 0.00 | 0.00 | 92 | 1021.3 |
| 20260831050237 | 70 | 14 | 0.0 | 0.0 | 0.00 | 0.00 | 0.00 | 91 | 1021.3 |
| 20260831045732 | 70 | 14 | 0.0 | 0.0 | 0.00 | 0.00 | 0.00 | 92 | 1021.3 |
| 20260831045227 | 70 | 14 | 0.0 | 0.0 | 0.00 | 0.00 | 0.00 | 91 | 1021.3 |
| 20260831044722 | 71 | 14 | 0.0 | 0.0 | 0.00 | 0.00 | 0.00 | 90 | 1021.7 |
| 20260831044216 | 71 | 14 | 1.0 | 3.0 | 0.00 | 0.00 | 0.00 | 91 | 1021.7 |
| 20260831043713 | 70 | 14 | 0.0 | 0.0 | 0.00 | 0.00 | 0.00 | 91 | 1021.7 |
| 20260831043207 | 70 | 14 | 0.0 | 0.0 | 0.00 | 0.00 | 0.00 | 91 | 1021.7 |
| 20260831042706 | 70 | 14 | 0.0 | 0.0 | 0.00 | 0.00 | 0.00 | 92 | 1021.7 |
| 20260831042201 | 69 | 14 | 2.0 | 3.0 | 0.00 | 0.00 | 0.00 | 92 | 1021.7 |
| 20260831041656 | 70 | 14 | 0.0 | 0.0 | 0.00 | 0.00 | 0.00 | 91 | 1021.7 |
| 20260831041150 | 70 | 14 | 0.0 | 0.0 | 0.00 | 0.00 | 0.00 | 91 | 1021.7 |
| 20260831040645 | 70 | 14 | 0.0 | 0.0 | 0.00 | 0.00 | 0.00 | 92 | 1021.7 |
| 20260831040144 | 70 | 14 | 0.0 | 1.0 | 0.00 | 0.00 | 0.00 | 92 | 1021.7 |
| 20260831035644 | 70 | 14 | 0.0 | 0.0 | 0.00 | 0.00 | 0.00 | 91 | 1021.7 |
| 20260831035143 | 70 | 14 | 0.0 | 0.0 | 0.00 | 0.00 | 0.00 | 92 | 1021.7 |
| 20260831034642 | 71 | 14 | 0.0 | 0.0 | 0.00 | 0.00 | 0.00 | 91 | 1022.0 |
| 20260831034138 | 71 | 14 | 0.0 | 0.0 | 0.00 | 0.00 | 0.00 | 90 | 1021.7 |
| 20260831033633 | 71 | 14 | 0.0 | 0.0 | 0.00 | 0.00 | 0.00 | 89 | 1022.0 |
| 20260831033128 | 71 | 14 | 0.0 | 0.0 | 0.00 | 0.00 | 0.00 | 89 | 1022.0 |
| 20260831032628 | 71 | 14 | 0.0 | 0.0 | 0.00 | 0.00 | 0.00 | 88 | 1022.0 |
| 20260831032124 | 72 | 14 | 0.0 | 0.0 | 0.00 | 0.00 | 0.00 | 87 | 1021.7 |
| 20260831031618 | 72 | 14 | 0.0 | 0.0 | 0.00 | 0.00 | 0.00 | 86 | 1021.7 |
| 20260831031117 | 73 | 14 | 0.0 | 0.0 | 0.00 | 0.00 | 0.00 | 85 | 1021.7 |
| 20260831030616 | 73 | 14 | 0.0 | 0.0 | 0.00 | 0.00 | 0.00 | 85 | 1021.7 |
| 20260831030115 | 73 | 14 | 0.0 | 0.0 | 0.00 | 0.00 | 0.00 | 85 | 1021.7 |
| 20260831025614 | 73 | 14 | 0.0 | 0.0 | 0.00 | 0.00 | 0.00 | 86 | 1021.7 |
| 20260831025109 | 73 | 14 | 0.0 | 0.0 | 0.00 | 0.00 | 0.00 | 87 | 1021.7 |
| 20260831024606 | 73 | 14 | 0.0 | 0.0 | 0.00 | 0.00 | 0.00 | 86 | 1021.7 |
| 20260831024104 | 73 | 14 | 0.0 | 0.0 | 0.00 | 0.00 | 0.00 | 87 | 1021.7 |
| 20260831023602 | 74 | 14 | 0.0 | 0.0 | 0.00 | 0.00 | 0.00 | 85 | 1021.7 |
| 20260831023057 | 74 | 14 | 0.0 | 0.0 | 0.00 | 0.00 | 0.00 | 85 | 1021.7 |
| 20260831022556 | 75 | 14 | 0.0 | 0.0 | 0.00 | 0.00 | 0.00 | 84 | 1021.7 |
| 20260831022052 | 75 | 14 | 0.0 | 0.0 | 0.00 | 0.00 | 0.00 | 80 | 1021.7 |
| 20260831021550 | 75 | 14 | 0.0 | 0.0 | 0.00 | 0.00 | 0.00 | 82 | 1021.7 |
| 20260831021047 | 75 | 14 | 0.0 | 0.0 | 0.00 | 0.00 | 0.00 | 82 | 1021.7 |
| 20260831020542 | 75 | 14 | 0.0 | 3.0 | 0.00 | 0.00 | 0.00 | 81 | 1021.7 |
| 20260831020037 | 76 | 14 | 0.0 | 0.0 | 0.00 | 0.00 | 0.00 | 79 | 1021.7 |
| 20260831015532 | 77 | 14 | 0.0 | 0.0 | 0.00 | 0.00 | 0.00 | 77 | 1021.7 |
| 20260831015027 | 78 | 14 | 0.0 | 0.0 | 0.00 | 0.00 | 0.00 | 72 | 1021.7 |
| 20260831014522 | 78 | 311 | 0.0 | 0.0 | 0.00 | 0.00 | 0.00 | 70 | 1021.7 |
| 20260831014018 | 78 | 311 | 0.0 | 0.0 | 0.00 | 0.00 | 0.00 | 68 | 1021.7 |
| 20260831013514 | 79 | 311 | 0.0 | 0.0 | 0.00 | 0.00 | 0.00 | 68 | 1021.7 |
| 20260831013013 | 79 | 311 | 0.0 | 0.0 | 0.00 | 0.00 | 0.00 | 69 | 1021.3 |
| 20260831012508 | 79 | 311 | 0.0 | 0.0 | 0.00 | 0.00 | 0.00 | 69 | 1021.3 |
| 20260831012008 | 79 | 311 | 0.0 | 0.0 | 0.00 | 0.00 | 0.00 | 70 | 1021.3 |
| 20260831011502 | 80 | 338 | 1.0 | 4.0 | 0.00 | 0.00 | 0.00 | 66 | 1021.3 |
| 20260831010959 | 80 | 8 | 6.0 | 7.0 | 0.00 | 0.00 | 0.00 | 66 | 1021.3 |
| 20260831010458 | 80 | 51 | 0.0 | 3.0 | 0.00 | 0.00 | 0.00 | 67 | 1021.3 |
| 20260831005954 | 80 | 71 | 4.0 | 6.0 | 0.00 | 0.00 | 0.00 | 70 | 1021.0 |
| 20260831005450 | 81 | 82 | 3.0 | 5.0 | 0.00 | 0.00 | 0.00 | 67 | 1021.3 |
| 20260831004949 | 81 | 338 | 0.0 | 0.0 | 0.00 | 0.00 | 0.00 | 66 | 1021.0 |
| 20260831004446 | 81 | 338 | 3.0 | 5.0 | 0.00 | 0.00 | 0.00 | 66 | 1021.0 |
| 20260831003941 | 81 | 333 | 5.0 | 6.0 | 0.00 | 0.00 | 0.00 | 67 | 1021.0 |
| 20260831003437 | 80 | 330 | 7.0 | 11.0 | 0.00 | 0.00 | 0.00 | 68 | 1021.0 |
| 20260831002931 | 79 | 310 | 7.0 | 11.0 | 0.00 | 0.00 | 0.00 | 73 | 1021.0 |
| 20260831002430 | 79 | 319 | 3.0 | 5.0 | 0.00 | 0.00 | 0.00 | 76 | 1021.0 |
| 20260831001925 | 79 | 277 | 2.0 | 3.0 | 0.00 | 0.00 | 0.00 | 75 | 1021.0 |
| 20260831001420 | 79 | 277 | 2.0 | 4.0 | 0.00 | 0.00 | 0.00 | 75 | 1020.6 |
| 20260831000918 | 79 | 308 | 5.0 | 7.0 | 0.00 | 0.00 | 0.00 | 74 | 1020.6 |
| 20260831000413 | 80 | 309 | 4.0 | 5.0 | 0.00 | 0.00 | 0.00 | 74 | 1020.6 |
| 20260830235911 | 79 | 309 | 4.0 | 6.0 | 0.00 | 0.00 | 0.00 | 75 | 1020.6 |
| 20260830235406 | 79 | 309 | 4.0 | 5.0 | 0.00 | 0.00 | 0.00 | 76 | 1020.6 |
| 20260830234902 | 79 | 310 | 3.0 | 5.0 | 0.00 | 0.00 | 0.00 | 77 | 1020.6 |
| 20260830234357 | 80 | 225 | 0.0 | 0.0 | 0.00 | 0.00 | 0.00 | 77 | 1020.3 |
| 20260830233853 | 80 | 225 | 0.0 | 0.0 | 0.00 | 0.00 | 0.00 | 76 | 1020.6 |
| 20260830233348 | 80 | 225 | 0.0 | 0.0 | 0.00 | 0.00 | 0.00 | 73 | 1020.3 |
| 20260830232844 | 81 | 225 | 0.0 | 0.0 | 0.00 | 0.00 | 0.00 | 73 | 1020.6 |
| 20260830232339 | 81 | 225 | 0.0 | 0.0 | 0.00 | 0.00 | 0.00 | 72 | 1020.6 |
| 20260830231836 | 82 | 225 | 2.0 | 2.0 | 0.00 | 0.00 | 0.00 | 72 | 1020.6 |
| 20260830231336 | 83 | 225 | 0.0 | 2.0 | 0.00 | 0.00 | 0.00 | 65 | 1020.6 |
| 20260830230836 | 84 | 225 | 2.0 | 3.0 | 0.00 | 0.00 | 0.00 | 63 | 1020.6 |
| 20260830230331 | 85 | 225 | 2.0 | 3.0 | 0.00 | 0.00 | 0.00 | 61 | 1020.3 |
| 20260830225825 | 86 | 225 | 4.0 | 6.0 | 0.00 | 0.00 | 0.00 | 58 | 1020.6 |
| 20260830225321 | 86 | 225 | 3.0 | 4.0 | 0.00 | 0.00 | 0.00 | 59 | 1020.6 |
| 20260830224820 | 86 | 225 | 2.0 | 3.0 | 0.00 | 0.00 | 0.00 | 57 | 1020.6 |
| 20260830224315 | 86 | 233 | 5.0 | 6.0 | 0.00 | 0.00 | 0.00 | 58 | 1020.3 |
| 20260830223812 | 86 | 235 | 5.0 | 7.0 | 0.00 | 0.00 | 0.00 | 58 | 1020.3 |
| 20260830223308 | 87 | 239 | 4.0 | 6.0 | 0.00 | 0.00 | 0.00 | 58 | 1020.3 |
| 20260830222807 | 87 | 221 | 5.0 | 9.0 | 0.00 | 0.00 | 0.00 | 56 | 1020.3 |
| 20260830222306 | 87 | 247 | 5.0 | 7.0 | 0.00 | 0.00 | 0.00 | 56 | 1020.3 |
| 20260830221758 | 88 | 243 | 6.0 | 8.0 | 0.00 | 0.00 | 0.00 | 56 | 1020.3 |
| 20260830221255 | 88 | 246 | 3.0 | 4.0 | 0.00 | 0.00 | 0.00 | 55 | 1020.0 |
| 20260830220749 | 88 | 246 | 2.0 | 3.0 | 0.00 | 0.00 | 0.00 | 56 | 1020.3 |
| 20260830220248 | 88 | 217 | 7.0 | 10.0 | 0.00 | 0.00 | 0.00 | 56 | 1020.3 |
| 20260830215747 | 88 | 217 | 5.0 | 9.0 | 0.00 | 0.00 | 0.00 | 57 | 1020.0 |
| 20260830215242 | 88 | 262 | 6.0 | 8.0 | 0.00 | 0.00 | 0.00 | 57 | 1020.0 |
| 20260830214737 | 88 | 227 | 5.0 | 7.0 | 0.00 | 0.00 | 0.00 | 56 | 1020.3 |
| 20260830214237 | 89 | 231 | 7.0 | 9.0 | 0.00 | 0.00 | 0.00 | 55 | 1020.3 |